This is the latest recevied weather packets stored in our database for station/object WD9EKA. If no packets are shown the sender has not sent any weather packets the latest 10 day(s).
| Time | Temp. | Humidity | Pressure | Rain* | Wind** | Luminosity | Snow |
|---|---|---|---|---|---|---|---|
| 1787601363 | 26.67° C | 53% | 1013.2 hPa | 0 mm | - | - | - |
| 1787601043 | 25.56° C | 54% | 1013.3 hPa | 0 mm | - | - | - |
| 1787600723 | 25.56° C | 57% | 1013.5 hPa | 0 mm | - | - | - |
| 1787600404 | 25.56° C | 54% | 1013.4 hPa | 0 mm | - | - | - |
| 1787600083 | 25.56° C | 56% | 1013.5 hPa | 0 mm | - | - | - |
| 1787599763 | 25° C | 59% | 1013.5 hPa | 0 mm | - | - | - |
| 1787599443 | 25.56° C | 56% | 1013.7 hPa | 0 mm | - | - | - |
| 1787599123 | 25.56° C | 56% | 1013.7 hPa | 0 mm | - | - | - |
| 1787598803 | 26.11° C | 59% | 1013.7 hPa | 0 mm | - | - | - |
| 1787598483 | 25.56° C | 55% | 1013.7 hPa | 0 mm | - | - | - |
| 1787598163 | 25° C | 58% | 1014 hPa | 0 mm | - | - | - |
| 1787597843 | 25° C | 60% | 1014 hPa | 0 mm | - | - | - |
| 1787597523 | 24.44° C | 62% | 1013.9 hPa | 0 mm | - | - | - |
| 1787597203 | 24.44° C | 61% | 1014.1 hPa | 0 mm | - | - | - |
| 1787596883 | 25° C | 65% | 1013.9 hPa | 0 mm | - | - | - |
| 1787596563 | 25° C | 63% | 1013.8 hPa | 0 mm | - | - | - |
| 1787596243 | 25.56° C | 57% | 1013.8 hPa | 0 mm | - | - | - |
| 1787595923 | 25° C | 55% | 1013.7 hPa | 0 mm | - | - | - |
| 1787595603 | 25.56° C | 54% | 1014 hPa | 0 mm | - | - | - |
| 1787595283 | 25° C | 55% | 1014 hPa | 0 mm | - | - | - |
| 1787594963 | 24.44° C | 62% | 1014.1 hPa | 0 mm | - | - | - |
| 1787594643 | 24.44° C | 60% | 1014.1 hPa | 0 mm | - | - | - |
| 1787594323 | 23.89° C | 63% | 1014.2 hPa | 0 mm | - | - | - |
| 1787594003 | 24.44° C | 63% | 1014.2 hPa | 0 mm | - | - | - |
| 1787593683 | 25° C | 59% | 1014.2 hPa | 0 mm | - | - | - |
* Rain latest hour (hover to see other rain measurements)
** Current wind speed in m/s (hover to see current wind gust speed)